This is the latest recevied weather packets stored in our database for station/object W7MB. If no packets are shown the sender has not sent any weather packets the latest 10 day(s).
| Time | Temp. | Humidity | Pressure | Rain* | Wind** | Luminosity | Snow |
|---|---|---|---|---|---|---|---|
| 1777564443 | 8.89° C | 80% | 1022.3 hPa | 0 mm | - | - | - |
| 1777564083 | 8.89° C | 79% | 1022.4 hPa | 0 mm | - | - | - |
| 1777563723 | 7.78° C | 57% | 1022.4 hPa | 0 mm | - | - | - |
| 1777563363 | 7.22° C | 42% | 1022.5 hPa | 0 mm | - | - | - |
| 1777563004 | 6.67° C | 41% | 1022.5 hPa | 0 mm | - | - | - |
| 1777562643 | 6.11° C | 43% | 1022.6 hPa | 0 mm | - | - | - |
| 1777562283 | 5.56° C | 45% | 1022.6 hPa | 0 mm | - | - | - |
| 1777561923 | 5° C | 46% | 1022.7 hPa | 0 mm | - | - | - |
| 1777561563 | 4.44° C | 48% | 1022.7 hPa | 0 mm | - | - | - |
| 1777561204 | 3.89° C | 50% | 1022.7 hPa | 0 mm | - | - | - |
| 1777560843 | 3.33° C | 51% | 1022.8 hPa | 0 mm | - | - | - |
| 1777560483 | 2.78° C | 53% | 1022.8 hPa | 0 mm | - | - | - |
| 1777560123 | 2.78° C | 54% | 1022.8 hPa | 0 mm | - | - | - |
| 1777559763 | 2.22° C | 56% | 1022.8 hPa | 0 mm | - | - | - |
| 1777559403 | 2.22° C | 57% | 1022.8 hPa | 0 mm | - | - | - |
| 1777559043 | 2.22° C | 58% | 1022.8 hPa | 0 mm | - | - | - |
| 1777558684 | 2.22° C | 57% | 1022.8 hPa | 0 mm | - | - | - |
| 1777558323 | 1.67° C | 58% | 1022.8 hPa | 0 mm | - | - | - |
| 1777557963 | 1.67° C | 60% | 1022.8 hPa | 0 mm | - | - | - |
| 1777557604 | 1.67° C | 61% | 1022.8 hPa | 0 mm | - | - | - |
| 1777557243 | 1.67° C | 62% | 1022.7 hPa | 0 mm | - | - | - |
| 1777556883 | 1.67° C | 63% | 1022.7 hPa | 0 mm | - | - | - |
| 1777556523 | 1.11° C | 64% | 1022.7 hPa | 0 mm | - | - | - |
| 1777556163 | 1.11° C | 66% | 1022.6 hPa | 0 mm | - | - | - |
| 1777555804 | 1.11° C | 66% | 1022.5 hPa | 0 mm | - | - | - |
* Rain latest hour (hover to see other rain measurements)
** Current wind speed in m/s (hover to see current wind gust speed)